Location: Ferchesar
(52.6477°N, 12.4298°E)
Time: 04:36:12
(UTC+01:00)

Explorer 7 - Pass Details

Date: 07 December 2021
Orbit: 483 x 674 km, 50.3° (Epoch: 21 January)

Event Time Altitude Azimuth Distance (km) Brightness Sun altitude
Rises 08:06:35 0° 270° (W) 2,763 9.9 -0.9°
Reaches altitude 10° 08:08:55 10° 267° (W) 1,832 9.0 -0.6°
Maximum altitude 08:13:00 59° 189° (S) 613 7.3 -0.1°
Drops below altitude 10° 08:16:52 10° 109° (ESE) 1,729 10.9 0.3°
Sets 08:19:01 0° 105° (ESE) 2,591 11.7 0.6°
